EZY91QY EGKK-LGKR

Flight info

Callsign EZY91QY
Flight time N/A
Altitude 37000
Route MIMFO Y312 DVR UL9 KONAN DCT KOK DCT REMBA DCT SPI DCT ULNOK DCT VIBOM DCT NOMBO DCT RIDAR DCT RADIZ DCT NIPEL DCT ABISO DCT NEMEK DCT GACMO DCT AKIKA DCT LIMJA N732 PITAS
Aircraft A320/M-SDE3FGHIRWY/LB1

Departure

Time 2026-04-17 12:26
Airport London Gatwick Airport (EGKK)

Arrival

Time N/A
Airport Corfu Ioannis Kapodistrias International Airport (LGKR)
Time Latitude Longitude Altitude Speed Heading
2026-04-17 12:03 51.16277 -0.18086 211 ft 0 kts 78°
2026-04-17 12:12 51.16272 -0.18122 206 ft 3 kts 78°
2026-04-17 12:12 51.16268 -0.18153 208 ft 3 kts 72°
2026-04-17 12:12 51.16259 -0.18174 213 ft 3 kts 44°
2026-04-17 12:12 51.16251 -0.18187 214 ft 2 kts 55°
2026-04-17 12:13 51.16245 -0.18205 212 ft 3 kts 112°
2026-04-17 12:13 51.16255 -0.18220 216 ft 3 kts 162°
2026-04-17 12:13 51.16266 -0.18225 216 ft 2 kts 168°
2026-04-17 12:13 51.16279 -0.18230 213 ft 1 kts 168°
2026-04-17 12:17 51.16260 -0.18223 216 ft 6 kts 168°
2026-04-17 12:17 51.16208 -0.18205 212 ft 9 kts 168°
2026-04-17 12:17 51.16146 -0.18184 208 ft 10 kts 168°
2026-04-17 12:18 51.16076 -0.18159 211 ft 11 kts 168°
2026-04-17 12:18 51.15998 -0.18132 209 ft 12 kts 167°
2026-04-17 12:18 51.15914 -0.18103 204 ft 13 kts 168°
2026-04-17 12:18 51.15825 -0.18072 204 ft 13 kts 167°
2026-04-17 12:19 51.15740 -0.18043 214 ft 9 kts 167°
2026-04-17 12:19 51.15699 -0.17972 208 ft 10 kts 91°
2026-04-17 12:19 51.15712 -0.17864 207 ft 10 kts 77°
2026-04-17 12:19 51.15726 -0.17763 211 ft 9 kts 77°
2026-04-17 12:20 51.15740 -0.17663 213 ft 11 kts 78°
2026-04-17 12:20 51.15751 -0.17583 215 ft 12 kts 78°
2026-04-17 12:20 51.15707 -0.17493 205 ft 11 kts 167°
2026-04-17 12:20 51.15639 -0.17471 209 ft 10 kts 168°
2026-04-17 12:21 51.15566 -0.17445 209 ft 11 kts 167°
2026-04-17 12:21 51.15489 -0.17418 204 ft 12 kts 168°
2026-04-17 12:21 51.15410 -0.17390 204 ft 12 kts 168°
2026-04-17 12:21 51.15306 -0.17354 214 ft 11 kts 167°
2026-04-17 12:22 51.15255 -0.17322 212 ft 12 kts 141°
2026-04-17 12:22 51.15250 -0.17199 207 ft 10 kts 77°
2026-04-17 12:22 51.15263 -0.17106 213 ft 8 kts 77°
2026-04-17 12:22 51.15274 -0.17026 208 ft 7 kts 77°
2026-04-17 12:23 51.15284 -0.16958 204 ft 6 kts 77°
2026-04-17 12:23 51.15291 -0.16903 208 ft 5 kts 81°
2026-04-17 12:23 51.15278 -0.16832 207 ft 7 kts 136°
2026-04-17 12:23 51.15233 -0.16809 214 ft 8 kts 167°
2026-04-17 12:24 51.15173 -0.16790 203 ft 10 kts 174°
2026-04-17 12:24 51.15113 -0.16863 208 ft 13 kts 256°
2026-04-17 12:24 51.15104 -0.16932 203 ft 0 kts 258°
2026-04-17 12:25 51.15103 -0.16938 203 ft 4 kts 258°
2026-04-17 12:25 51.15058 -0.17265 216 ft 65 kts 257°
2026-04-17 12:26 51.14914 -0.18305 204 ft 124 kts 257°
2026-04-17 12:26 51.14715 -0.19866 421 ft 151 kts 256°
2026-04-17 12:26 51.14512 -0.21476 1193 ft 148 kts 253°
2026-04-17 12:26 51.14286 -0.23122 1773 ft 160 kts 254°
2026-04-17 12:27 51.14029 -0.24970 2148 ft 182 kts 255°